Regional Weather Roundup
Issued by NWS

Home | Current Version | Previous Version | Text Only | Print | Product List | Glossary Off
Versions: 1 2 3 4 5 6 7 8 9 10 11 12 13 14 15 16 17 18 19 20 21 22 23 24 25 26 27 28 29 30 31 32 33 34 35 36 37 38 39 40 41 42 43 44 45 46 47 48 49 50

000
ASUS44 KMEG 261900
RWRTN
TENNESSEE HOURLY STATE WEATHER ROUNDUP
NATIONAL WEATHER SERVICE MEMPHIS TN
100 PM CST WED NOV 26 2014

TNZ002-004-019-021-049-052-054-088>092-262000-
WEST TENNESSEE

CITY           SKY/WX    TMP DP  RH WIND       PRES   REMARKS
MEMPHIS INTL   LGT RAIN  50  30  46 S12       29.96F
NWS MEMPHIS      N/A    N/A N/A N/A MISG        N/A
JACKSON        CLOUDY    48  26  42 SE5       30.00F
DYERSBURG      CLOUDY    45  23  42 SE14      29.98F
PARIS            N/A     43  27  52 SE10      30.02F
LEXINGTON      PTSUNNY   46  23  39 S7        30.03F
SAVANNAH       MOSUNNY   48  27  43 S8        30.05F
$$

TNZ008-025-027-028-033-062-065-066-262000-
NORTH MIDDLE TENNESSEE

CITY           SKY/WX    TMP DP  RH WIND       PRES   REMARKS
NASHVILLE      MOSUNNY   49  21  33 CALM      30.06F
CLARKSVILLE    MOSUNNY   44  23  43 SE7       30.05F
COOKEVILLE     SUNNY     48  25  40 VRB7      30.05F
CROSSVILLE     MOSUNNY   45  23  42 W6        30.03F
$$

TNZ061-075-076-078-094-096-097-262000-
SOUTH MIDDLE TENNESSEE

CITY           SKY/WX    TMP DP  RH WIND       PRES   REMARKS
TULLAHOMA      SUNNY     48  21  34 CALM      30.06F
WINCHESTER     SUNNY     48  27  43 SW6       30.07F
SHELBYVILLE    SUNNY     48  27  43 CALM      30.07F
$$

TNZ017-018-042-046-047-262000-
NORTHEAST TENNESSEE

CITY           SKY/WX    TMP DP  RH WIND       PRES   REMARKS
TRI CITIES     CLOUDY    45  38  76 W7        30.00F
ELIZABETHTON   CLOUDY    41  37  87 CALM      30.00F
$$

TNZ012-013-036-069-073-074-262000-
CENTRAL EAST TENNESSEE

CITY           SKY/WX    TMP DP  RH WIND       PRES   REMARKS
KNOXVILLE      MOSUNNY   50  30  46 SW3       30.02F
OAK RIDGE      SUNNY     54  24  31 W7        30.03F
GATLINBURG     CLEAR     52  28  40 VRB6      30.01F
$$

TNZ083-085-099-262000-
SOUTHEAST TENNESSEE

CITY           SKY/WX    TMP DP  RH WIND       PRES   REMARKS
CHATTANOOGA    MOSUNNY   53  23  31 W5        30.07F
$$

SKY/WX REPORTED AS FAIR MEANS FEW OR NO CLOUDS BELOW
12 THOUSAND FEET.




USA.gov is the U.S. government's official web portal to all federal, state and local government web resources and services.